DW6157 Weather Reports


Display with metric or nautical units.
time (UTC)temp
F
wind
direction
speed
MPH
gust
MPH
rain 1hr
in
rain 24hr
in
rain mn
in
humidity
%
barometer
mb
20260508063004 50 110 0.0 0.0 0.00 0.00 0.00 72 1022.4
20260508061602 50 333 0.0 0.0 0.00 0.00 0.00 74 1022.3
20260508060057 47 333 0.0 0.0 0.00 0.00 0.00 71 1022.2
20260508054602 46 333 0.0 0.0 0.00 0.00 0.00 71 1022.1
20260508053051 45 331 0.0 0.0 0.00 0.00 0.00 72 1022.0
20260508051552 42 326 0.0 0.0 0.00 0.00 0.00 75 1021.9
20260508050041 40 326 0.0 0.0 0.00 0.00 0.00 77 1021.7
20260508044539 38 326 0.0 0.0 0.00 0.00 0.00 80 1021.6
20260508043041 36 326 0.0 3.0 0.00 0.00 0.00 81 1021.6
20260508041536 35 252 0.0 0.0 0.00 0.00 0.00 85 1021.6
20260508040039 33 252 0.0 0.0 0.00 0.00 0.00 87 1021.6
20260508034534 32 252 0.0 0.0 0.00 0.00 0.00 87 1021.4
20260508033033 32 252 0.0 0.0 0.00 0.00 0.00 87 1021.3
20260508031533 32 252 0.0 0.0 0.00 0.00 0.00 87 1021.4
20260508030033 32 252 0.0 0.0 0.00 0.00 0.00 87 1021.3
20260508024541 32 252 0.0 0.0 0.00 0.00 0.00 87 1021.2
20260508023030 32 252 0.0 0.0 0.00 0.00 0.00 86 1021.1
20260508021527 31 252 0.0 0.0 0.00 0.00 0.00 85 1021.1
20260508020025 32 252 0.0 0.0 0.00 0.00 0.00 85 1020.9
20260508014541 32 252 0.0 0.0 0.00 0.00 0.00 86 1021.0
20260508013022 32 252 0.0 0.0 0.00 0.00 0.00 85 1020.9
20260508011522 32 252 0.0 0.0 0.00 0.00 0.00 84 1020.8
20260508010027 32 252 0.0 1.0 0.00 0.00 0.00 84 1020.7
20260508004523 33 252 0.0 0.0 0.00 0.00 0.00 82 1020.7
20260508003041 33 252 0.0 0.0 0.00 0.00 0.00 82 1020.6
20260508001514 34 252 0.0 0.0 0.00 0.00 0.00 81 1020.4
20260508000011 35 252 0.0 0.0 0.00 0.00 0.00 79 1020.3
20260507234508 35 252 0.0 0.0 0.00 0.00 0.00 78 1020.2
20260507233006 36 252 0.0 0.0 0.00 0.00 0.00 77 1020.1
20260507231505 36 252 0.0 0.0 0.00 0.00 0.00 77 1020.0
20260507230004 36 252 0.0 0.0 0.00 0.00 0.00 75 1019.9
20260507224620 37 252 0.0 0.0 0.00 0.00 0.00 74 1019.9
20260507223101 37 252 0.0 0.0 0.00 0.00 0.00 73 1019.9
20260507221557 38 252 0.0 0.0 0.00 0.00 0.00 73 1019.7
20260507220054 38 252 0.0 0.0 0.00 0.00 0.00 72 1019.7
20260507214554 39 252 0.0 0.0 0.00 0.00 0.00 70 1019.7
20260507213051 41 252 0.0 0.0 0.00 0.00 0.00 66 1019.6
20260507211606 41 252 0.0 0.0 0.00 0.00 0.00 66 1019.4
20260507210050 42 252 0.0 0.0 0.00 0.00 0.00 65 1019.3
20260507204550 42 252 0.0 0.0 0.00 0.00 0.00 65 1019.1
20260507203045 44 252 0.0 0.0 0.00 0.00 0.00 62 1019.0
20260507201552 45 252 0.0 0.0 0.00 0.00 0.00 62 1018.9
20260507200054 46 252 0.0 0.0 0.00 0.00 0.00 61 1018.9
20260507194544 46 252 0.0 0.0 0.00 0.00 0.00 57 1018.9
20260507193042 48 252 0.0 0.0 0.00 0.00 0.00 56 1018.6
20260507191548 49 252 0.0 0.0 0.00 0.00 0.00 52 1018.5
20260507190039 49 250 0.0 2.0 0.00 0.00 0.00 49 1018.3
20260507184537 50 249 0.0 3.0 0.00 0.00 0.00 45 1018.2
20260507183036 51 226 1.0 5.0 0.00 0.00 0.00 42 1018.1
20260507181535 52 244 1.0 4.0 0.00 0.00 0.00 40 1018.1
20260507180042 53 226 2.0 4.0 0.00 0.00 0.00 42 1018.0
20260507174536 55 244 2.0 6.0 0.00 0.00 0.00 42 1017.8
20260507173035 56 232 3.0 6.0 0.00 0.00 0.00 44 1017.8
20260507171531 55 285 4.0 8.0 0.00 0.00 0.00 43 1017.7
20260507170031 55 218 2.0 10.0 0.00 0.00 0.00 46 1017.7
20260507164531 55 205 3.0 8.0 0.00 0.00 0.00 47 1017.7
20260507163030 55 193 5.0 10.0 0.00 0.00 0.00 41 1017.7
20260507161529 55 214 4.0 9.0 0.00 0.00 0.00 44 1017.7
20260507160033 56 214 6.0 11.0 0.00 0.00 0.00 45 1017.7
20260507154529 57 236 4.0 9.0 0.00 0.00 0.00 40 1017.7
20260507153031 57 205 4.0 9.0 0.00 0.00 0.00 42 1017.6
20260507151524 56 210 7.0 10.0 0.00 0.00 0.00 43 1017.5
20260507150023 57 229 6.0 11.0 0.00 0.00 0.00 44 1017.5
20260507144522 58 231 6.0 11.0 0.00 0.00 0.00 44 1017.4
20260507143026 59 200 5.0 10.0 0.00 0.00 0.00 40 1017.3
20260507141520 59 205 4.0 9.0 0.00 0.00 0.00 39 1017.4
20260507140026 59 182 2.0 9.0 0.00 0.00 0.00 40 1017.4
20260507134520 59 225 4.0 8.0 0.00 0.00 0.00 40 1017.4
20260507133016 59 183 1.0 6.0 0.00 0.00 0.00 42 1017.4
20260507131514 58 200 4.0 8.0 0.00 0.00 0.00 42 1017.5
20260507130012 58 252 4.0 9.0 0.00 0.00 0.00 43 1017.4
20260507124515 58 210 4.0 10.0 0.00 0.00 0.00 42 1017.4
20260507123018 57 205 5.0 10.0 0.00 0.00 0.00 44 1017.4
20260507121512 57 210 5.0 10.0 0.00 0.00 0.00 44 1017.4
20260507120009 57 235 7.0 11.0 0.00 0.00 0.00 41 1017.4
20260507114509 57 218 6.0 10.0 0.00 0.00 0.00 43 1017.3
20260507113007 57 219 7.0 11.0 0.00 0.00 0.00 42 1017.3
20260507111507 57 200 4.0 10.0 0.00 0.00 0.00 46 1017.4
20260507110012 57 193 5.0 10.0 0.00 0.00 0.00 42 1017.3
20260507104503 57 255 7.0 12.0 0.00 0.00 0.00 38 1017.1
20260507103003 57 215 8.0 12.0 0.00 0.00 0.00 40 1017.0
20260507101503 57 131 0.0 3.0 0.00 0.00 0.00 31 1016.9
20260507094602 55 60 0.0 1.0 0.00 0.00 0.00 32 1016.8
20260507093057 56 340 1.0 6.0 0.00 0.00 0.00 34 1016.8
20260507091602 54 255 0.0 3.0 0.00 0.00 0.00 37 1016.9
20260507090110 53 335 0.0 7.0 0.00 0.00 0.00 36 1016.9
20260507084549 53 283 1.0 7.0 0.00 0.00 0.00 37 1016.9
20260507083047 52 77 2.0 7.0 0.00 0.00 0.00 36 1016.8
20260507081553 52 60 5.0 9.0 0.00 0.00 0.00 38 1016.8
20260507080043 52 56 1.0 9.0 0.00 0.00 0.00 40 1016.6
20260507074542 51 39 0.0 7.0 0.00 0.00 0.00 41 1016.5
20260507073053 51 47 4.0 7.0 0.00 0.00 0.00 42 1016.4
20260507071536 51 56 2.0 7.0 0.00 0.00 0.00 44 1016.3
20260507070041 50 48 2.0 7.0 0.00 0.00 0.00 44 1016.4
20260507064531 49 13 3.0 7.0 0.00 0.00 0.00 44 1016.2